GAOFEN-11 01

Last updated on Tue Oct 15 2024 00:02:25 GMT+0000 (Coordinated Universal Time)

1 43585U 18063A 24288.52250006 .00016899 00000+0 50013-3 0 9991 2 43585 97.2182 351.5967 0008607 51.9187 308.2831 15.34923494346039
UTC large
Height (km)
Speed (km/s)
/
Latitude / Longitude
Inclination (degrees)
Orbital Period (minutes)
Azimuth
Elevation
Range (km)
Doppler Factor

Next 0 passes for location: London (51.5072 / 0.1276)

Sorry there are no passes over London.